Regional Weather Roundup
Issued by NWS

Home | Current Version | Previous Version | Graphics & Text | Print | Product List | Glossary On
Versions: 1 2 3 4 5 6 7 8 9 10 11 12 13 14 15 16 17 18 19 20 21 22 23 24 25 26 27
000
ASUS45 KCYS 301310
RWRWY

WYOMING REGIONAL WEATHER ROUNDUP
NATIONAL WEATHER SERVICE CHEYENNE WY
700 AM MDT SUN APR 30 2017

NOTE:  "FAIR" INDICATES FEW OR NO CLOUDS BELOW 12,000 FEET
WITH NO SIGNIFICANT WEATHER AND/OR OBSTRUCTIONS TO VISIBILITY.

WYZ001-301400-
YELLOWSTONE NATIONAL PARK

CITY           SKY/WX    TMP DP  RH WIND       PRES   REMARKS
LK YELLOWSTONE   N/A     22  20  92 CALM      30.14F
W YELLOWSTONE  NOT AVBL

$$
WYZ002>013-054>058-071-098>099-301400-
NORTHERN WYOMING

CITY           SKY/WX    TMP DP  RH WIND       PRES   REMARKS
JACKSON        CLEAR     27  25  93 CALM      30.15S
CODY           FAIR      29  28  96 CALM      30.06F
GREYBULL       FAIR      35  25  66 CALM      30.08F
WORLAND        FAIR      33  27  78 S5        30.08F WCI  29
SHERIDAN       FAIR      29  23  78 CALM      30.02F
BUFFALO        FAIR      34  18  52 W8        30.03F WCI  27
GILLETTE       FAIR      29  21  72 VRB6      30.04F WCI  23
HULETT         FAIR      32  23  69 S3        30.08S
NEWCASTLE      FAIR      32  25  74 N8        30.09S WCI  25

$$
WYZ014>020-022>026-101>103-301400-
CENTRAL WYOMING

CITY           SKY/WX    TMP DP  RH WIND       PRES   REMARKS
BIG PINEY      FAIR      22  18  85 E7        30.17S WCI  13
PINEDALE       FAIR      21  19  93 NW3       30.18F
DUBOIS         FAIR      30  19  64 NW12      30.09F WCI  21
LANDER         FAIR      24  18  77 SE3       30.10F
RIVERTON       FAIR      27  23  85 SW6       30.11F WCI  20
CASPER         FAIR      29  24  82 SW14      30.09F WCI  18
DOUGLAS        FAIR      28  23  81 CALM      30.08F

$$
WYZ021-027>030-104>119-301400-
SOUTHERN WYOMING

CITY           SKY/WX    TMP DP  RH WIND       PRES   REMARKS
EVANSTON       FAIR      27  21  78 S8        30.19S WCI  19
FORT BRIDGER   FAIR      34  22  62 W10       30.20F WCI  26
ROCK SPRINGS   FAIR      30  22  72 W9        30.16F WCI  22
DIXON            N/A     20  17  86 CALM      30.19S
RAWLINS        FAIR      23  18  81 CALM      30.13S
SARATOGA       FAIR      21  19  93 CALM      30.13F
LARAMIE        FAIR      15  11  83 S3        30.07R
CHEYENNE       FAIR      29  16  58 NW17G24   30.01F WCI  17
TORRINGTON     FAIR      31  22  69 NW8       30.04F WCI  23
PINE BLUFFS    FAIR      30  21  69 NW14      30.00F WCI  20

$$




USA.gov is the U.S. government's official web portal to all federal, state and local government web resources and services.